Regional Weather Roundup
Issued by NWS

Home | Current Version | Previous Version | Text Only | Print | Product List | Glossary Off
Versions: 1 2 3 4 5 6 7 8 9 10 11 12 13 14 15 16 17 18 19 20 21 22 23 24 25 26 27 28 29 30 31 32 33 34 35 36 37 38 39 40 41 42 43 44 45 46 47 48 49 50

000
ASUS43 KLMK 021910
RWRKY
KENTUCKY REGIONAL WEATHER ROUNDUP
NATIONAL WEATHER SERVICE LOUISVILLE KY
300 PM EDT WED SEP 02 2015

NOTE "FAIR" INDICATES FEW OR NO CLOUDS BELOW 12,000 FEET
WITH NO SIGNIFICANT WEATHER AND/OR OBSTRUCTIONS TO VISIBILITY.

KYZ001>023-026-027-061>063-070>075-022000-
WESTERN AND SOUTH CENTRAL KENTUCKY

CITY           SKY/WX    TMP DP  RH WIND       PRES   REMARKS
PADUCAH        SUNNY     93  67  42 E5        30.06F HX  96
HENDERSON      SUNNY     88  64  45 NE5       30.06F
OWENSBORO      MOSUNNY   91  67  45 NE5       30.07F HX  94
HOPKINSVILLE   MOSUNNY   89  65  44 E3        30.06F HX  91
BOWLING GREEN  SUNNY     92  63  38 SE5       30.08F HX  93
GLASGOW        SUNNY     91  63  40 E7        30.09F HX  92
$$

KYZ024-025-028>034-038-045-046-053-022000-
NORTH CENTRAL KENTUCKY

CITY           SKY/WX    TMP DP  RH WIND       PRES   REMARKS
LOUISVILLE/SDF PTSUNNY   90  65  43 W3        30.06F HX  92
LOUISVILLE/LOU SUNNY     89  65  44 NW5       30.08F HX  91
FORT KNOX      SUNNY     88  64  45 VRB5      30.07F
$$

KYZ035>037-039>044-047>052-055>060-089>105-022000-
NORTHEAST KENTUCKY

CITY           SKY/WX    TMP DP  RH WIND       PRES   REMARKS
LEXINGTON      MOSUNNY   89  65  44 W6        30.10F HX  91
COVINGTON      MOSUNNY   88  67  49 W5        30.08F HX  91
FRANKFORT      MOSUNNY   88  65  46 VRB6      30.08F HX  90
$$

KYZ054-064>069-076>088-106>120-022000-
SOUTHEAST KENTUCKY

CITY           SKY/WX    TMP DP  RH WIND       PRES   REMARKS
JACKSON        MOSUNNY   87  64  46 NW6       30.12F
LONDON         MOSUNNY   90  60  36 CALM      30.11F
SOMERSET       SUNNY     88  59  37 E3        30.11F
MIDDLESBORO    MOSUNNY   87  67  49 NW5       30.10F HX  90
MONTICELLO     CLEAR     91  66  43 N8        30.13F HX  93
$$




USA.gov is the U.S. government's official web portal to all federal, state and local government web resources and services.